Regional Weather Roundup
Issued by NWS

Home | Current Version | Previous Version | Text Only | Print | Product List | Glossary Off
Versions: 1 2 3 4 5 6 7 8 9 10 11 12 13 14 15 16 17 18 19 20 21 22 23 24 25 26 27 28 29 30 31 32 33 34 35 36 37 38 39 40 41 42 43 44 45 46 47 48 49 50

000
ASUS43 KIND 281709
RWRIN

WEATHER ROUNDUP FOR INDIANA
NATIONAL WEATHER SERVICE INDIANAPOLIS IN
1200 PM EST FRI NOV 28 2014

NOTE: "FAIR" INDICATES FEW OR NO CLOUDS BELOW 12,000 FEET WITH NO
SIGNIFICANT WEATHER AND/OR OBSTRUCTIONS TO VISIBILITY.

* - STATION DOES NOT REPORT WEATHER SUCH AS PRECIPITATION OR FOG.

+ - STATION NOT QUALITY CONTROLLED BY THE NATIONAL WEATHER SERVICE.
    USE DATA WITH CAUTION...ESPECIALLY DEWPOINT AND RELATIVE
    HUMIDITY OBSERVATIONS.

INZ001>003-010>013-019-020-281800-
NORTHWEST INDIANA

CITY           SKY/WX    TMP DP  RH WIND       PRES   REMARKS
GARY /AIRPORT/ PTSUNNY   28  16  59 S17       30.21F WCI  16
KNOX *+        MOSUNNY   26  18  71 S14       30.24F WCI  14
LA PORTE +     PTSUNNY   27  18  69 S12G17    30.24F WCI  17
MICHIGAN CITY+ CLOUDY    27  14  59 S8        30.23F WCI  18
MONTICELLO +   PTSUNNY   27  16  62 S9        30.26F WCI  18
RENSSELAER +   PTSUNNY   28  19  69 SE15      30.23F WCI  17
VALPARAISO     PTSUNNY   25  17  72 S14       30.22F WCI  13

$$

LMZ046-743>745-281800-
SOUTHERN LAKE MICHIGAN

STATION/POSITION TIME  TEMP WIND        PRES
                       AIR  DIR/SP/G
                 (UTC) (F)  (DEG/KT/KT) (MB)
MICHIGAN CITY    1700   24  150/ 13/ 17   N/A

$$

INZ004-005-014>016-021>024-281800-
NORTH CENTRAL INDIANA

CITY           SKY/WX    TMP DP  RH WIND       PRES   REMARKS
GOSHEN         CLOUDY    23  18  81 S12       30.25F WCI  12
LOGANSPORT +   PTSUNNY   28  18  64 S12       30.27F WCI  18
PERU/GRISSOM   PTSUNNY   27  21  77 S10       30.26F WCI  17
ROCHESTER +    PTSUNNY   30  21  69 S10       30.26F WCI  21
SOUTH BEND     PTSUNNY   24  17  74 S9        30.24F WCI  14
WARSAW +       PTSUNNY   27  18  69 S9        30.26F WCI  17

$$

INZ006>009-017-018-025>027-281800-
NORTHEAST INDIANA

CITY           SKY/WX    TMP DP  RH WIND       PRES   REMARKS
ANGOLA *+      CLOUDY    21  18  86 S8        30.25F WCI  12
AUBURN +       FLURRIES  28  18  64 S7        30.28F WCI  21
FORT WAYNE     FLURRIES  26  18  71 S9        30.29F WCI  17
HUNTINGTON +   CLOUDY    26  18  72 SW9       30.28F WCI  16

$$

INZ028-029-035-036-043>045-051>053-281800-
WEST CENTRAL INDIANA

CITY           SKY/WX    TMP DP  RH WIND       PRES   REMARKS
GREENCASTLE +  PTSUNNY   28  21  74 S9        30.27F WCI  20
LAFAYETTE      CLOUDY    27  15  61 S10       30.25F WCI  17
TERRE HAUTE    PTSUNNY   30  22  72 S14       30.28F WCI  19

$$

INZ030>032-037>040-046>048-054>057-064-065-281800-
CENTRAL INDIANA

CITY           SKY/WX    TMP DP  RH WIND       PRES   REMARKS
ANDERSON       SUNNY     28  18  64 S12       30.30  WCI  18
CP ATTERBURY + CLOUDY    32  18  55 SW7       30.32F WCI  26
COLUMBUS       PTSUNNY   28  19  69 S14       30.34F WCI  17
FRANKFORT +    PTSUNNY   29  19  68 SE7       30.28F WCI  21
INDIANAPOLIS   CLOUDY    27  14  58 S13       30.27F WCI  16
-EAGLE CREEK   CLOUDY    27  14  58 S8        30.28F WCI  19
KOKOMO *+      PTSUNNY   27  18  69 S10       30.28F WCI  17
MARION +         N/A     27  19  71 S9        30.28F WCI  18
MT COMFORT *+  CLOUDY    27  10  50 S9        30.29F WCI  17
SHELBYVILLE    CLOUDY    29  18  63 S13       30.30F WCI  19
ZIONSVILLE +   CLOUDY    27  15  62 S9        30.28F WCI  17

$$

INZ033-034-041-042-049-050-058-059-281800-
EAST CENTRAL INDIANA

CITY           SKY/WX    TMP DP  RH WIND       PRES   REMARKS
MUNCIE         PTSUNNY   28  17  63 S10       30.29F WCI  19

$$

INZ060-061-067>069-081>083-085>088-281800-
SOUTHWEST INDIANA

CITY           SKY/WX    TMP DP  RH WIND       PRES   REMARKS
EVANSVILLE     SUNNY     36  25  64 S13       30.33F
HUNTINGBURG *+ MOSUNNY   34  25  69 S12       30.34F WCI  25
WASHINGTON +   MOSUNNY   33  28  80 S13       30.31F WCI  24

$$

INZ062-063-066-070>080-084-089>092-281800-
SOUTH CENTRAL AND SOUTHEAST INDIANA

CITY           SKY/WX    TMP DP  RH WIND       PRES   REMARKS
BLOOMINGTON    CLOUDY    28  20  71 S9        30.30F WCI  19

$$




USA.gov is the U.S. government's official web portal to all federal, state and local government web resources and services.